Temp
-5 -6 -5 -5 -4 -5 -5 -5 -5 -5 -5 -5 -5 -4 -4 -5 -5 -5 -5 -5 -5 -5 -6 -6 -6 -6 -6 -6 -6 -6 -7 -7 -7 -7 -7 -7 -7 -7 -7 -8 -8 -8 -8 -8 -8 -8 -8 -8 -8
-5 -5 -5 -5 -6 -5 -5 -5 -5 -5 -5 -5 -5 -5 -4 -5 -5 -5 -5 -5 -5 -5 -5 -5 -6 -6 -6 -6 -6 -7 -7 -7 -7 -7 -7 -7 -7 -8 -8 -8 -8 -8 -8 -8 -8 -8 -8 -9 -9
-6 -5 -6 -7 -7 -6 -6 -6 -6 -6 -6 -5 -5 -5 -4 -5 -6 -6 -5 -5 -5 -5 -5 -5 -5 -6 -6 -6 -7 -7 -7 -7 -7 -7 -8 -8 -8 -8 -8 -8 -8 -8 -8 -8 -8 -9 -9 -9 -9
-6 -5 -6 -8 -8 -7 -6 -6 -6 -5 -5 -6 -6 -5 -5 -5 -6 -5 -5 -6 -5 -5 -5 -5 -5 -6 -6 -6 -7 -7 -8 -8 -8 -8 -8 -8 -8 -8 -8 -9 -9 -9 -8 -8 -9 -9 -9 -9 -9
-6 -6 -7 -8 -6 -6 -6 -5 -5 -6 -6 -6 -6 -6 -6 -5 -5 -6 -6 -6 -5 -5 -5 -5 -6 -6 -6 -6 -7 -7 -8 -8 -8 -8 -8 -8 -9 -9 -9 -9 -9 -9 -9 -8 -9 -9 -9 -9 -9
-5 -6 -7 -8 -6 -5 -5 -5 -6 -6 -6 -6 -6 -6 -6 -6 -6 -6 -6 -6 -6 -6 -6 -6 -6 -6 -7 -7 -7 -7 -8 -8 -8 -8 -9 -9 -9 -9 -9 -9 -9 -9 -9 -9 -9 -9 -9 -9 -9
-5 -6 -7 -8 -6 -6 -5 -5 -8 -6 -6 -6 -6 -6 -6 -6 -6 -6 -6 -6 -6 -6 -6 -6 -7 -7 -7 -7 -7 -8 -8 -8 -8 -8 -8 -9 -9 -9 -8 -8 -8 -9 -9 -9 -9 -9 -9 -9 -9
-6 -7 -7 -7 -7 -6 -6 -5 -6 -6 -6 -6 -6 -6 -6 -6 -6 -6 -6 -6 -6 -6 -7 -7 -7 -7 -7 -7 -7 -8 -8 -8 -8 -8 -8 -8 -8 -8 -9 -8 -8 -8 -8 -8 -9 -9 -9 -9 -9
-6 -6 -7 -7 -7 -6 -6 -6 -6 -6 -6 -6 -6 -7 -6 -6 -7 -7 -7 -7 -6 -7 -7 -7 -7 -7 -7 -7 -7 -8 -8 -7 -7 -7 -7 -8 -8 -8 -8 -8 -8 -8 -8 -8 -8 -8 -8 -8 -8
-6 -7 -6 -7 -6 -8 -5 -6 -6 -6 -6 -6 -6 -7 -7 -6 -7 -7 -7 -7 -6 -7 -6 -6 -7 -7 -7 -7 -7 -8 -7 -7 -7 -7 -7 -7 -7 -7 -7 -7 -7 -7 -7 -7 -7 -8 -8 -8 -8
-8 -6 -7 -8 -8 -8 -5 -6 -6 -6 -6 -6 -6 -6 -7 -6 -6 -7 -7 -7 -6 -7 -7 -7 -7 -7 -7 -7 -7 -7 -7 -7 -7 -7 -7 -7 -7 -7 -7 -7 -7 -7 -7 -7 -7 -7 -7 -7 -7
-7 -7 -8 -8 -7 -8 -8 -8 -5 -6 -6 -6 -6 -6 -6 -7 -7 -7 -7 -7 -7 -6 -7 -7 -7 -7 -7 -7 -7 -7 -7 -6 -6 -6 -6 -6 -6 -6 -6 -6 -7 -7 -7 -7 -7 -7 -7 -7 -7
-8 -8 -8 -8 -7 -9 -9 -7 -5 -6 -6 -6 -6 -7 -6 -6 -6 -6 -6 -6 -6 -7 -7 -6 -7 -7 -7 -7 -7 -6 -6 -6 -6 -6 -6 -6 -6 -6 -6 -6 -7 -7 -7 -7 -7 -7 -7 -7 -7
-9 -8 -9 -9 -8 -6 -8 -7 -5 -6 -6 -6 -5 -6 -7 -7 -7 -6 -6 -6 -6 -7 -6 -6 -6 -7 -7 -7 -6 -6 -6 -6 -6 -6 -6 -6 -6 -6 -6 -7 -7 -7 -7 -7 -7 -7 -7 -7 -7
-8 -8 -8 -6 -8 -6 -6 -6 -6 -6 -6 -6 -6 -6 -6 -7 -7 -6 -6 -6 -6 -6 -6 -6 -6 -7 -7 -7 -6 -6 -6 -6 -6 -6 -6 -6 -6 -6 -6 -7 -7 -7 -7 -7 -7 -7 -7 -7 -7
-8 -8 -8 -8 -7 -7 -5 -6 -6 -6 -6 -5 -6 -6 -6 -6 -6 -6 -6 -6 -6 -6 -6 -6 -6 -6 -6 -6 -6 -6 -6 -6 -6 -6 -6 -6 -6 -7 -7 -7 -7 -7 -7 -7 -7 -7 -7 -7 -7
-8 -8 -7 -7 -6 -7 -6 -6 -5 -6 -6 -5 -5 -6 -6 -6 -6 -6 -6 -6 -6 -6 -6 -6 -6 -6 -6 -6 -6 -6 -6 -7 -7 -7 -7 -7 -7 -7 -7 -7 -7 -7 -7 -7 -7 -7 -7 -7 -7
-8 -8 -6 -7 -6 -8 -6 -5 -6 -6 -6 -5 -5 -5 -6 -6 -6 -6 -6 -6 -5 -5 -5 -6 -6 -6 -6 -6 -7 -6 -7 -7 -7 -6 -7 -7 -7 -7 -7 -7 -7 -7 -7 -7 -7 -7 -7 -7 -7
-8 -7 -6 -6 -7 -6 -8 -8 -7 -6 -6 -5 -5 -5 -5 -5 -6 -5 -5 -5 -5 -5 -5 -5 -6 -6 -6 -6 -6 -6 -7 -7 -6 -6 -7 -7 -7 -7 -7 -7 -7 -7 -7 -7 -7 -7 -7 -7 -7
-8 -7 -6 -6 -7 -7 -7 -7 -7 -7 -6 -5 -5 -5 -5 -5 -5 -5 -5 -5 -5 -5 -5 -5 -5 -6 -6 -6 -6 -6 -7 -7 -6 -7 -6 -7 -7 -7 -7 -7 -7 -7 -7 -7 -7 -7 -7 -7 -7
-8 -7 -7 -6 -6 -6 -7 -6 -7 -7 -7 -6 -6 -5 -5 -5 -5 -5 -5 -5 -5 -5 -5 -5 -5 -6 -6 -6 -6 -6 -6 -6 -6 -6 -7 -7 -7 -7 -7 -7 -7 -7 -7 -7 -7 -7 -7 -7 -7
-8 -8 -7 -6 -7 -6 -7 -6 -6 -7 -7 -6 -6 -6 -5 -5 -6 -6 -6 -5 -5 -5 -5 -5 -5 -6 -6 -6 -6 -6 -6 -6 -6 -6 -7 -7 -7 -7 -7 -7 -7 -7 -7 -7 -7 -7 -7 -7 -7
-7 -8 -8 -7 -6 -6 -6 -6 -6 -6 -7 -7 -6 -6 -5 -5 -5 -6 -6 -6 -6 -5 -5 -5 -5 -5 -6 -6 -6 -6 -7 -7 -7 -7 -7 -7 -7 -7 -7 -7 -7 -7 -8 -7 -7 -7 -7 -7 -7
-6 -8 -8 -7 -7 -6 -6 -6 -6 -6 -6 -6 -7 -6 -5 -5 -6 -6 -6 -7 -7 -6 -6 -5 -5 -6 -6 -6 -6 -7 -7 -7 -7 -7 -7 -7 -7 -7 -7 -7 -7 -7 -7 -8 -7 -7 -7 -7 -7
-6 -8 -8 -7 -7 -6 -6 -6 -6 -5 -6 -7 -7 -7 -7 -6 -6 -6 -7 -6 -7 -6 -6 -6 -6 -6 -5 -6 -6 -7 -7 -7 -7 -7 -7 -8 -7 -7 -7 -7 -7 -7 -7 -8 -8 -7 -7 -7 -7
-6 -7 -8 -7 -6 -6 -6 -6 -6 -6 -6 -7 -7 -7 -7 -7 -6 -7 -7 -7 -7 -6 -6 -6 -6 -6 -6 -6 -6 -7 -7 -7 -7 -8 -8 -7 -7 -7 -8 -7 -7 -8 -8 -8 -8 -8 -8 -8 -7
-7 -7 -7 -7 -6 -6 -6 -6 -6 -6 -7 -7 -7 -7 -7 -7 -7 -7 -7 -7 -7 -7 -6 -6 -6 -6 -7 -7 -7 -7 -7 -7 -8 -8 -8 -7 -7 -8 -8 -8 -9 -9 -9 -9 -9 -8 -8 -8 -8
-7 -7 -8 -8 -7 -6 -5 -5 -5 -6 -7 -7 -7 -7 -7 -8 -7 -7 -7 -7 -7 -7 -7 -7 -7 -7 -7 -7 -7 -8 -8 -8 -8 -8 -7 -7 -8 -8 -9 -8 -10 -10 -9 -9 -8 -9 -9 -9 -9
-5 -6 -8 -8 -7 -7 -6 -5 -6 -6 -7 -7 -7 -7 -7 -8 -7 -7 -7 -7 -7 -7 -7 -7 -7 -7 -7 -7 -8 -8 -8 -8 -8 -8 -8 -7 -8 -9 -9 -9 -8 -9 -8 -8 -8 -8 -9 -8 -9
-9 -8 -8 -8 -8 -7 -6 -5 -6 -7 -7 -8 -7 -7 -7 -7 -7 -7 -7 -7 -7 -7 -7 -7 -7 -6 -7 -7 -8 -8 -8 -8 -8 -8 -8 -8 -8 -9 -10 -9 -8 -8 -9 -8 -9 -10 -9 -9 -10
Height
5888 5889 5890 5892 5878 5891 5892 5894 5893 5892 5893 5893 5892 5890 5889 5891 5890 5894 5893 5892 5893 5893 5894 5894 5894 5894 5895 5896 5895 5896 5896 5897 5898 5899 5899 5898 5897 5896 5898 5897 5898 5898 5898 5897 5896 5896 5897 5897 5897
5891 5892 5894 5892 5894 5892 5894 5894 5893 5893 5894 5894 5894 5892 5892 5892 5892 5893 5893 5894 5895 5895 5896 5897 5897 5898 5898 5897 5898 5898 5900 5901 5901 5901 5901 5900 5899 5899 5900 5900 5900 5900 5899 5898 5897 5898 5898 5899 5899
5895 5894 5892 5896 5897 5898 5897 5897 5895 5894 5894 5895 5895 5894 5894 5894 5893 5894 5895 5896 5898 5899 5900 5900 5900 5900 5900 5901 5901 5902 5903 5903 5903 5902 5902 5902 5902 5902 5902 5902 5902 5902 5901 5900 5899 5899 5900 5900 5901
5897 5898 5897 5907 5903 5901 5899 5898 5897 5898 5896 5895 5896 5896 5898 5897 5898 5897 5898 5899 5900 5902 5902 5902 5902 5903 5903 5904 5904 5904 5905 5905 5904 5903 5904 5904 5904 5904 5905 5904 5904 5904 5903 5902 5902 5901 5902 5902 5903
5900 5898 5903 5908 5903 5901 5899 5899 5899 5899 5898 5898 5897 5898 5899 5900 5899 5900 5901 5902 5903 5904 5905 5905 5905 5905 5906 5906 5906 5906 5906 5906 5905 5905 5905 5905 5905 5906 5906 5906 5906 5905 5905 5904 5903 5903 5904 5904 5904
5903 5905 5905 5913 5905 5903 5900 5899 5899 5899 5899 5899 5898 5899 5900 5901 5902 5903 5903 5904 5906 5906 5907 5907 5907 5908 5908 5908 5908 5908 5908 5907 5907 5907 5906 5907 5907 5908 5908 5908 5907 5907 5907 5906 5905 5905 5905 5905 5905
5901 5902 5910 5914 5907 5904 5902 5900 5900 5899 5899 5899 5899 5900 5902 5903 5904 5904 5905 5906 5908 5908 5908 5909 5909 5910 5910 5910 5910 5909 5910 5910 5910 5909 5909 5909 5909 5909 5909 5909 5909 5908 5908 5907 5906 5906 5905 5906 5906
5903 5909 5917 5913 5913 5907 5903 5901 5900 5900 5900 5900 5900 5901 5902 5902 5904 5906 5907 5908 5909 5909 5910 5910 5911 5912 5912 5911 5911 5911 5911 5911 5911 5911 5911 5910 5910 5910 5910 5910 5910 5909 5908 5907 5907 5906 5905 5906 5905
5904 5907 5919 5915 5908 5907 5904 5903 5902 5901 5901 5901 5901 5902 5903 5902 5904 5906 5908 5908 5909 5909 5910 5911 5912 5913 5914 5913 5913 5913 5912 5912 5912 5912 5912 5911 5912 5912 5911 5911 5911 5910 5909 5909 5908 5907 5907 5906 5905
5904 5904 5911 5914 5908 5908 5904 5902 5902 5902 5902 5901 5900 5900 5902 5903 5903 5905 5907 5907 5908 5910 5911 5912 5913 5914 5914 5914 5914 5914 5914 5913 5914 5914 5913 5913 5914 5913 5913 5912 5912 5912 5910 5910 5909 5908 5907 5906 5906
5906 5903 5907 5912 5910 5910 5905 5903 5902 5902 5902 5901 5901 5901 5902 5903 5903 5904 5906 5908 5909 5909 5911 5913 5914 5914 5915 5915 5915 5915 5915 5915 5916 5916 5916 5916 5916 5915 5916 5915 5914 5913 5913 5912 5911 5910 5910 5908 5907
5908 5907 5907 5912 5907 5911 5906 5905 5904 5904 5903 5902 5901 5901 5902 5903 5904 5904 5906 5907 5909 5910 5912 5913 5914 5914 5916 5916 5916 5916 5917 5917 5917 5918 5919 5919 5918 5918 5918 5918 5916 5915 5914 5913 5912 5912 5911 5911 5910
5907 5909 5910 5908 5906 5908 5909 5906 5905 5904 5903 5902 5901 5901 5903 5903 5904 5904 5905 5908 5910 5912 5913 5914 5915 5916 5917 5917 5917 5917 5918 5919 5920 5920 5920 5920 5919 5920 5920 5920 5919 5917 5916 5915 5914 5913 5913 5912 5910
5908 5908 5908 5907 5908 5906 5908 5906 5905 5905 5904 5903 5902 5902 5903 5904 5904 5906 5907 5908 5911 5913 5914 5915 5916 5917 5918 5918 5919 5919 5920 5920 5921 5922 5921 5921 5921 5921 5921 5921 5921 5919 5918 5917 5915 5915 5913 5912 5911
5903 5905 5906 5905 5906 5905 5906 5907 5907 5905 5904 5904 5904 5903 5904 5905 5906 5907 5908 5910 5912 5913 5914 5915 5917 5918 5919 5919 5920 5921 5921 5921 5922 5922 5922 5922 5922 5922 5923 5922 5921 5920 5919 5918 5916 5915 5914 5913 5911
5900 5904 5909 5910 5905 5905 5907 5909 5908 5906 5905 5905 5905 5904 5905 5906 5907 5908 5910 5911 5913 5914 5915 5916 5917 5918 5919 5920 5921 5922 5922 5922 5922 5923 5923 5924 5924 5923 5923 5923 5921 5920 5919 5918 5916 5915 5914 5912 5911
5898 5903 5907 5905 5906 5905 5907 5904 5907 5907 5906 5905 5905 5905 5905 5906 5907 5909 5910 5911 5913 5914 5915 5917 5918 5918 5919 5920 5921 5922 5922 5923 5923 5923 5924 5924 5923 5923 5922 5922 5920 5920 5919 5918 5916 5915 5913 5912 5910
5897 5902 5910 5908 5905 5905 5906 5902 5905 5906 5905 5905 5905 5905 5906 5906 5908 5909 5910 5911 5912 5914 5915 5917 5918 5918 5919 5920 5921 5921 5922 5922 5923 5923 5924 5924 5924 5923 5922 5921 5920 5920 5918 5917 5915 5914 5912 5910 5909
5898 5905 5907 5908 5903 5903 5905 5906 5905 5905 5905 5905 5904 5905 5906 5907 5907 5909 5910 5910 5912 5914 5914 5915 5916 5918 5918 5919 5920 5920 5921 5921 5922 5923 5923 5923 5923 5922 5921 5920 5918 5918 5916 5915 5913 5911 5909 5908 5907
5891 5900 5904 5906 5903 5901 5907 5908 5910 5904 5904 5904 5904 5904 5905 5906 5908 5908 5909 5910 5911 5912 5913 5914 5915 5917 5917 5918 5919 5920 5920 5920 5921 5921 5921 5922 5921 5919 5919 5917 5915 5914 5912 5911 5909 5908 5907 5905 5903
5885 5892 5901 5906 5900 5897 5906 5902 5907 5906 5903 5903 5903 5904 5904 5904 5906 5907 5908 5909 5910 5911 5911 5912 5914 5915 5916 5917 5918 5918 5919 5920 5920 5919 5919 5918 5918 5917 5915 5913 5911 5909 5909 5908 5906 5904 5903 5902 5901
5879 5885 5893 5901 5894 5896 5899 5905 5901 5905 5903 5902 5901 5902 5903 5903 5904 5905 5906 5907 5908 5908 5909 5910 5912 5913 5914 5914 5916 5916 5917 5918 5917 5916 5916 5915 5914 5913 5911 5909 5907 5906 5904 5903 5901 5900 5900 5899 5898
5876 5884 5888 5893 5897 5892 5897 5900 5900 5899 5901 5899 5900 5900 5901 5902 5903 5903 5904 5905 5905 5905 5906 5907 5909 5910 5910 5912 5913 5914 5914 5914 5913 5913 5911 5910 5908 5907 5905 5904 5903 5901 5900 5898 5897 5895 5895 5895 5894
5874 5878 5883 5886 5890 5888 5893 5894 5897 5889 5899 5901 5899 5897 5898 5898 5899 5900 5901 5901 5902 5902 5903 5904 5906 5906 5907 5909 5910 5910 5910 5910 5910 5908 5907 5906 5904 5902 5901 5900 5898 5897 5896 5895 5893 5891 5890 5889 5888
5862 5868 5872 5876 5878 5879 5889 5889 5886 5896 5896 5894 5897 5897 5895 5896 5896 5897 5898 5899 5899 5899 5899 5900 5901 5903 5904 5905 5906 5906 5906 5906 5905 5904 5903 5901 5900 5898 5897 5896 5895 5894 5893 5891 5888 5887 5886 5884 5883
5851 5858 5862 5865 5872 5878 5881 5879 5885 5889 5889 5892 5892 5894 5893 5889 5892 5894 5896 5896 5896 5896 5896 5896 5896 5897 5899 5900 5902 5902 5901 5901 5902 5900 5898 5896 5897 5896 5896 5894 5892 5891 5887 5884 5883 5882 5880 5880 5878
5843 5844 5859 5866 5869 5871 5874 5877 5878 5877 5881 5884 5885 5887 5890 5883 5887 5890 5891 5892 5893 5893 5892 5891 5891 5892 5894 5895 5896 5897 5896 5896 5896 5896 5895 5897 5897 5895 5893 5891 5888 5885 5882 5879 5877 5876 5875 5872 5871
5828 5845 5847 5849 5856 5861 5867 5871 5872 5872 5871 5874 5878 5881 5881 5880 5882 5884 5886 5887 5888 5889 5889 5888 5888 5888 5889 5890 5891 5891 5891 5892 5892 5893 5895 5894 5893 5892 5890 5887 5882 5879 5874 5870 5867 5867 5867 5866 5865
5819 5824 5835 5844 5849 5852 5859 5863 5869 5867 5863 5865 5871 5876 5879 5875 5876 5879 5881 5882 5883 5884 5886 5886 5885 5884 5884 5885 5885 5886 5887 5888 5889 5891 5891 5891 5891 5890 5887 5882 5877 5875 5866 5859 5857 5856 5857 5858 5856
5809 5816 5825 5831 5836 5841 5849 5856 5863 5861 5860 5862 5866 5871 5874 5871 5872 5874 5875 5876 5879 5880 5881 5882 5881 5880 5880 5880 5880 5882 5884 5886 5887 5887 5888 5889 5887 5886 5884 5880 5874 5869 5864 5857 5851 5853 5852 5849 5847
Wind_Speed
13 12 15 9 11 13 9 10 7 7 6 7 6 7 7 10 12 11 10 11 8 8 11 13 14 18 16 17 17 15 14 14 13 10 9 8 6 6 5 6 7 6 5 5 6 5 4 8 6
11 14 8 10 16 12 8 8 8 7 9 5 7 7 9 12 10 9 7 8 10 11 14 17 18 17 15 15 13 12 10 10 10 10 8 6 4 3 3 5 5 6 7 7 6 6 5 6 6
10 15 11 19 10 3 8 9 9 9 7 6 5 6 5 8 9 9 9 11 11 12 14 16 15 13 12 11 10 9 8 8 8 8 5 4 3 1 2 3 4 5 7 7 5 4 5 5 4
13 16 19 11 4 7 4 6 7 6 6 6 5 5 11 11 7 8 8 11 11 12 12 12 11 10 9 8 9 8 7 6 6 4 3 4 4 2 3 4 6 6 8 7 4 2 4 4 2
16 26 23 7 3 5 6 7 6 5 5 5 5 6 9 7 5 8 9 11 12 12 11 9 7 7 7 7 8 6 6 6 5 4 3 5 5 4 4 6 7 8 7 7 6 5 3 2 2
20 20 20 4 2 5 5 5 7 7 7 7 7 5 8 7 8 9 11 11 12 10 8 6 5 6 7 7 7 6 5 7 8 6 6 6 5 5 3 3 4 7 7 5 7 5 4 3 1
21 12 10 3 2 3 5 6 5 8 9 7 7 7 9 10 8 10 11 11 8 6 6 5 6 6 7 8 8 8 9 9 10 10 10 9 8 6 4 4 3 3 5 6 6 3 2 2 2
22 13 3 5 3 2 6 7 8 9 9 9 7 7 11 13 10 7 9 7 4 4 5 6 6 7 8 10 10 10 10 10 10 11 11 11 10 9 7 7 6 5 3 5 6 5 3 2 1
25 23 3 5 16 6 8 8 8 9 10 11 11 7 7 13 13 9 8 5 4 5 6 6 8 9 10 10 9 9 9 9 10 11 12 12 11 10 9 8 6 5 5 7 8 8 7 7 5
18 22 11 13 8 8 7 8 7 7 8 9 10 10 7 13 14 12 9 7 7 6 6 10 13 11 11 9 8 7 9 10 12 14 14 14 13 13 13 13 13 12 12 12 12 11 11 11 10
7 1 12 7 13 11 7 9 8 6 5 7 7 10 11 11 13 11 8 7 8 8 10 12 12 11 10 8 7 7 8 10 12 14 16 15 14 14 15 14 14 13 13 14 14 14 13 12 11
12 8 2 9 9 9 8 9 8 7 6 8 8 8 13 14 14 13 12 11 11 12 13 12 10 10 9 8 8 7 8 10 11 11 12 13 13 13 13 12 13 13 13 14 13 13 13 12 13
13 13 10 9 10 9 11 9 8 7 6 8 10 10 11 14 13 12 11 12 14 14 12 12 9 7 7 7 8 8 8 8 7 6 8 10 10 11 10 10 11 11 11 11 11 11 10 9 9
12 11 11 11 10 12 12 8 7 6 6 6 8 10 9 12 12 13 13 13 14 13 13 10 8 6 6 6 7 7 7 5 5 3 4 6 8 7 7 7 7 7 7 7 9 9 10 11 11
21 15 12 13 12 14 14 8 7 7 8 6 6 7 8 12 12 14 14 15 15 13 11 10 8 6 6 6 5 5 4 5 4 3 3 3 3 5 4 6 5 5 6 7 8 9 10 10 11
22 17 11 12 16 17 16 5 6 7 8 8 8 7 8 10 11 12 11 12 12 11 10 8 8 5 4 2 1 2 2 3 3 4 3 1 1 2 4 4 5 6 7 8 10 10 12 14 13
23 16 12 19 20 18 16 8 12 9 8 9 8 8 8 9 9 10 11 12 11 9 9 9 7 5 4 4 3 4 4 3 1 1 1 1 1 1 2 4 6 8 10 11 12 14 14 14 14
20 17 15 17 22 22 19 11 19 13 11 11 10 8 9 8 8 8 9 10 10 9 9 8 7 6 7 8 7 8 7 4 3 2 2 4 3 3 3 5 7 9 12 14 14 15 15 15 14
18 17 18 16 23 25 20 18 15 14 13 12 11 10 9 9 9 9 10 10 10 11 11 11 10 9 9 9 8 6 4 5 5 6 6 5 7 9 9 9 12 13 14 16 17 15 15 14 14
24 23 20 15 30 22 20 17 17 18 13 12 14 13 10 8 8 8 9 11 13 13 13 13 12 10 11 10 9 9 8 8 7 8 9 9 9 12 14 16 17 17 18 18 16 17 15 15 15
30 27 23 21 28 18 22 19 22 26 17 15 15 14 13 12 9 9 9 11 12 13 15 15 13 12 12 12 10 10 9 9 10 11 12 12 14 17 21 18 17 19 20 19 17 18 18 17 17
33 29 25 24 33 27 25 21 27 24 24 20 18 16 14 13 12 12 13 13 14 15 14 14 14 14 14 13 13 14 12 13 14 15 17 18 19 22 23 20 21 21 22 21 20 19 20 20 19
35 28 28 27 30 30 24 27 24 24 23 26 21 17 16 18 19 17 15 15 13 14 15 16 15 16 17 16 15 15 15 17 18 20 22 23 25 24 24 24 23 22 22 23 23 23 21 21 20
32 31 30 30 31 35 32 32 29 34 23 29 25 23 23 22 21 21 21 14 13 15 16 18 18 19 20 19 18 18 18 19 22 24 24 23 23 24 25 25 24 24 25 25 26 26 24 21 22
44 37 34 36 37 40 30 37 34 26 29 25 23 24 27 25 24 23 22 19 17 13 15 18 19 19 21 20 20 20 20 21 21 23 22 23 25 27 27 28 29 28 26 26 27 26 26 24 24
51 46 42 40 34 34 32 37 35 32 27 23 24 22 25 32 27 23 18 19 18 17 16 15 16 21 21 22 22 20 21 20 22 21 23 25 25 25 23 28 29 31 35 32 25 28 27 27 28
47 55 43 35 30 32 30 31 31 25 32 33 32 26 26 36 24 23 16 15 11 13 15 15 17 18 20 22 22 20 21 22 20 19 18 19 21 22 23 33 31 32 38 37 42 31 30 31 32
51 43 48 48 44 38 33 31 27 31 33 30 30 26 26 27 25 26 22 18 12 12 10 10 12 18 19 22 20 21 20 19 17 16 19 19 16 27 25 30 31 30 33 31 35 37 33 32 33
47 57 47 45 45 43 38 33 31 26 22 26 26 20 24 26 22 21 16 14 16 18 15 13 16 17 18 19 19 18 17 15 15 13 14 16 19 21 25 34 29 30 34 32 33 38 35 36 40
39 44 54 47 51 47 42 36 27 30 26 27 29 25 19 25 27 22 22 21 18 19 18 21 18 16 18 19 21 20 16 13 12 16 19 19 17 22 22 24 32 31 33 24 21 27 38 46 41
Wind_Direction
86 102 104 148 39 63 145 159 173 210 189 186 121 132 139 147 139 136 128 115 111 103 112 94 103 106 113 105 99 100 106 119 120 127 134 131 124 102 86 83 80 88 97 97 102 112 128 132 114
104 96 142 135 35 29 104 140 151 145 155 139 132 139 157 160 137 139 119 102 93 93 91 97 98 100 102 95 96 101 114 124 134 137 128 127 118 98 83 77 84 90 86 91 96 120 123 125 123
103 112 105 75 310 96 179 160 188 177 170 148 159 159 156 139 144 111 101 96 95 93 96 99 98 98 98 94 101 108 125 135 141 141 138 134 132 140 83 73 75 72 75 76 90 98 111 122 131
116 107 85 71 155 191 194 185 181 183 162 142 144 167 167 173 161 123 101 101 107 103 97 92 95 99 102 97 108 118 131 139 144 145 153 152 147 136 83 60 59 60 61 62 64 86 109 135 146
103 75 66 331 130 140 150 148 145 182 181 168 162 159 165 174 165 135 121 119 108 102 88 80 90 97 102 106 116 124 138 145 138 129 133 132 142 126 106 75 65 63 62 65 58 47 69 125 144
73 99 102 298 135 146 141 147 145 157 158 161 157 160 140 147 148 141 131 121 111 90 78 92 105 118 125 117 107 119 119 111 105 92 109 123 142 141 106 72 49 66 67 54 65 55 50 40 78
111 89 77 228 100 141 141 131 139 155 149 164 169 176 150 137 141 149 136 123 108 74 95 117 142 146 134 118 112 108 107 111 110 94 100 102 113 113 94 80 70 82 73 52 53 63 41 50 55
108 95 125 204 138 178 142 137 147 158 161 151 167 182 163 145 143 140 142 139 127 112 133 162 158 146 131 121 113 105 106 107 107 98 95 95 95 93 94 84 72 68 66 64 50 44 50 48 23
113 127 201 137 210 248 161 152 155 162 170 178 181 204 220 171 158 164 176 183 159 140 151 144 132 126 123 110 98 101 104 104 96 88 83 83 82 78 73 77 78 69 58 50 54 51 48 42 37
131 133 123 195 357 255 175 155 157 167 181 187 189 182 193 201 178 182 195 179 162 152 151 148 140 136 119 104 102 100 104 97 86 81 79 75 78 79 73 70 72 70 67 62 63 60 55 48 42
144 351 123 275 178 239 194 164 165 162 182 185 206 190 182 199 180 169 166 177 171 149 150 144 135 127 112 112 106 99 97 94 86 81 81 81 78 74 68 66 68 71 68 64 60 61 64 61 54
170 274 111 215 192 169 186 174 171 176 188 178 168 197 191 185 178 171 177 181 163 147 146 138 127 117 109 99 93 98 97 91 88 83 87 85 78 68 62 56 68 66 62 61 55 53 51 51 52
206 203 230 236 213 180 215 190 184 182 191 186 158 168 193 188 182 177 174 164 152 147 147 134 129 115 101 97 96 97 95 91 87 82 90 89 79 64 59 49 52 51 48 45 48 45 41 35 37
221 239 218 230 236 207 199 197 196 191 189 185 157 149 173 174 167 167 158 150 151 155 151 138 132 120 104 105 91 93 104 112 112 98 100 98 85 62 57 36 36 38 28 28 26 17 19 12 10
207 227 224 220 208 201 202 184 198 182 183 167 160 139 162 169 165 167 161 159 164 162 156 152 150 140 124 118 104 84 102 146 149 166 151 125 50 48 38 31 25 25 13 7 6 2 4 3 356
211 209 221 256 207 205 207 231 209 194 187 175 171 149 146 164 159 158 163 168 168 161 162 164 164 160 148 142 130 101 66 105 165 164 184 188 19 35 31 24 14 16 353 347 343 343 343 341 343
205 211 215 219 249 208 204 262 227 215 198 193 182 167 160 164 160 167 175 171 170 170 180 194 202 206 204 204 224 266 276 293 229 226 208 165 11 3 351 341 358 348 341 338 329 324 324 323 323
201 210 215 244 267 218 200 181 236 220 215 200 191 179 165 168 185 187 186 185 186 193 205 214 234 235 228 238 255 262 274 268 263 268 303 315 327 330 317 322 320 321 326 322 315 310 311 310 307
202 215 222 216 247 236 220 198 235 228 225 211 190 189 188 179 182 198 205 206 210 215 224 232 241 248 246 255 268 263 264 256 257 272 300 304 322 315 308 306 304 308 312 312 308 301 297 296 292
201 212 221 228 227 219 219 228 233 243 229 217 205 192 189 198 204 205 213 221 225 226 232 242 245 238 244 254 263 250 254 259 265 273 284 290 294 304 309 303 298 295 295 296 299 294 291 289 285
215 207 215 216 245 204 215 221 233 238 226 207 203 206 201 202 215 232 232 230 232 233 235 243 247 246 251 259 260 250 253 265 268 269 276 282 292 302 306 302 296 292 289 288 288 290 287 289 285
218 211 205 214 227 216 231 225 230 241 244 230 213 213 218 219 224 233 241 245 242 243 244 240 235 239 242 246 250 250 254 264 271 276 282 285 289 295 298 293 292 291 288 284 277 278 278 283 286
217 216 213 214 227 253 222 236 243 214 242 264 234 222 226 232 236 234 240 249 249 249 244 243 241 242 243 245 246 255 266 273 280 285 286 290 294 296 297 299 299 298 294 287 278 276 274 277 281
220 214 219 224 221 231 227 232 223 252 207 238 254 241 238 239 238 238 237 239 253 253 249 246 241 241 244 249 251 259 265 275 282 286 290 293 296 298 298 297 292 290 290 289 286 279 270 263 268
219 214 218 220 226 230 227 232 236 219 237 256 232 245 270 247 237 241 245 246 247 251 256 254 250 253 255 251 252 258 267 273 279 289 286 291 299 302 302 301 302 300 300 295 289 283 273 263 262
223 217 218 222 224 231 230 229 236 240 227 228 232 237 251 265 242 247 264 270 264 250 258 262 251 247 249 247 252 261 267 272 284 278 284 295 306 309 308 314 312 316 313 304 292 288 281 274 270
219 221 219 225 236 235 236 244 238 229 231 238 236 238 240 257 237 249 247 256 259 267 272 261 250 244 242 241 249 259 266 277 277 283 289 308 334 342 315 346 326 303 310 301 299 295 289 283 281
221 223 218 219 224 229 234 232 242 242 241 226 231 228 237 240 243 245 260 248 274 281 295 291 274 258 245 239 244 255 262 264 269 278 309 328 335 1 360 343 326 332 304 301 290 290 297 290 286
227 216 221 228 227 228 232 233 235 242 234 223 224 228 238 244 245 250 235 250 266 273 280 289 281 271 255 234 235 241 246 257 282 315 338 339 4 347 346 343 350 334 344 328 305 277 284 287 288
228 225 219 222 225 229 228 232 238 224 246 217 201 206 223 256 257 241 247 255 259 277 283 288 269 269 247 226 229 232 241 270 290 322 338 348 358 357 340 339 337 333 327 331 331 303 290 292 289